,,,PA_Meas_PMT16A,,PR_Meas_QMR101_102,,RH_Meas_QMH101,,SR_Meas_QMS101,,TA_Meas_QMH101,,GenWind,,GenWind,
date,time,status,PA,status,PR,status,RH,status,SR,status,TA,status,DirAvg,status,SpdAvg,
2012-09-10, 00:00:04,VALID,1000.37,VALID,0,VALID,54.3534,VALID,0,VALID,26.7055,VALID,168,VALID,4.20547,
2012-09-10, 00:01:04,VALID,1000.4,VALID,0,VALID,54.8646,VALID,0,VALID,26.7446,VALID,168,VALID,4.31758,
2012-09-10, 00:02:04,VALID,1000.39,VALID,0,VALID,54.8951,VALID,0,VALID,26.7641,VALID,186,VALID,3.1418,
2012-09-10, 00:03:04,VALID,1000.43,VALID,0,VALID,54.5518,VALID,0,VALID,26.8793,VALID,175,VALID,3.54844,
2012-09-10, 00:04:04,VALID,1000.41,VALID,0,VALID,54.6357,VALID,0,VALID,26.7836,VALID,177,VALID,3.075,
2012-09-10, 00:05:04,VALID,1000.43,VALID,0,VALID,55.0248,VALID,0,VALID,26.7446,VALID,183,VALID,3.14687,
2012-09-10, 00:06:04,VALID,1000.45,VALID,0,VALID,54.4831,VALID,0,VALID,26.8247,VALID,173,VALID,2.59258,
2012-09-10, 00:07:04,VALID,1000.41,VALID,0,VALID,53.9719,VALID,0,VALID,26.8638,VALID,174,VALID,5.01875,
2012-09-10, 00:08:04,VALID,1000.42,VALID,0,VALID,53.8651,VALID,0,VALID,26.8618,VALID,176,VALID,4.61055,
2012-09-10, 00:09:04,VALID,1000.39,VALID,0,VALID,54.4755,VALID,0,VALID,26.9008,VALID,171,VALID,3.96602,
2012-09-10, 00:10:04,VALID,1000.39,VALID,0,VALID,54.3687,VALID,0,VALID,26.8618,VALID,188,VALID,3.09766,
2012-09-10, 00:11:04,VALID,1000.37,VALID,0,VALID,54.3305,VALID,0,VALID,26.8618,VALID,201,VALID,3.64063,
2012-09-10, 00:12:04,VALID,1000.4,VALID,0,VALID,54.8722,VALID,0,VALID,26.7857,VALID,180,VALID,2.31172,
2012-09-10, 00:13:04,VALID,1000.39,VALID,0,VALID,55.1469,VALID,0,VALID,26.7076,VALID,182,VALID,2.63594,
2012-09-10, 00:14:04,VALID,1000.41,VALID,0,VALID,55.3453,VALID,0,VALID,26.6685,VALID,175,VALID,2.23789,
2012-09-10, 00:15:04,VALID,1000.4,VALID,0,VALID,55.3834,VALID,0,VALID,26.6685,VALID,180,VALID,3.33516,
2012-09-10, 00:16:04,VALID,1000.37,VALID,0,VALID,55.5131,VALID,0,VALID,26.6294,VALID,174,VALID,3.38398,
2012-09-10, 00:17:04,VALID,1000.41,VALID,0,VALID,55.5894,VALID,0,VALID,26.6079,VALID,175,VALID,3.34375,
2012-09-10, 00:18:04,VALID,1000.4,VALID,0,VALID,55.8412,VALID,0,VALID,26.5513,VALID,170,VALID,3.21094,
2012-09-10, 00:19:04,VALID,1000.41,VALID,0,VALID,55.8336,VALID,0,VALID,26.4126,VALID,170,VALID,4.38789,
2012-09-10, 00:20:04,VALID,1000.4,VALID,0,VALID,55.7649,VALID,0,VALID,26.4146,VALID,178,VALID,3.7293,
2012-09-10, 00:21:04,VALID,1000.41,VALID,0,VALID,55.9251,VALID,0,VALID,26.5123,VALID,192,VALID,2.54297,
2012-09-10, 00:22:04,VALID,1000.37,VALID,0,VALID,55.1622,VALID,0,VALID,26.6294,VALID,188,VALID,2.82891,
2012-09-10, 00:23:04,VALID,1000.42,VALID,0,VALID,55.124,VALID,0,VALID,26.6685,VALID,171,VALID,3.68906,
2012-09-10, 00:24:04,VALID,1000.38,VALID,0,VALID,54.918,VALID,0,VALID,26.688,VALID,172,VALID,2.8375,
2012-09-10, 00:25:04,VALID,1000.36,VALID,0,VALID,55.1316,VALID,0,VALID,26.6099,VALID,167,VALID,3.43086,
2012-09-10, 00:26:04,VALID,1000.36,VALID,0,VALID,55.1164,VALID,0,VALID,26.5708,VALID,180,VALID,3.38047,
2012-09-10, 00:27:04,VALID,1000.29,VALID,0,VALID,54.9333,VALID,0,VALID,26.4907,VALID,156,VALID,3.7625,
2012-09-10, 00:28:04,VALID,1000.3,VALID,0,VALID,55.475,VALID,0,VALID,26.4907,VALID,154,VALID,5.21367,
2012-09-10, 00:29:04,VALID,1000.3,VALID,0,VALID,54.8875,VALID,0,VALID,26.4537,VALID,151,VALID,4.10117,
2012-09-10, 00:30:04,VALID,1000.31,VALID,0,VALID,57.7791,VALID,0,VALID,26.3931,VALID,130,VALID,1.75352,
2012-09-10, 00:31:04,VALID,1000.34,VALID,0,VALID,60.8462,VALID,0,VALID,26.1002,VALID,140,VALID,1.37227,
2012-09-10, 00:32:04,VALID,1000.34,VALID,0,VALID,62.5781,VALID,0,VALID,25.7897,VALID,148,VALID,1.12461,
2012-09-10, 00:33:04,VALID,1000.3,VALID,0,VALID,64.1346,VALID,0,VALID,25.4949,VALID,116,VALID,0.942578,
2012-09-10, 00:34:04,VALID,1000.31,VALID,0,VALID,65.4316,VALID,0,VALID,25.2802,VALID,108,VALID,0.442969,
2012-09-10, 00:35:04,VALID,1000.27,VALID,0,VALID,65.7597,VALID,0,VALID,25.1045,VALID,127,VALID,1.07227,
2012-09-10, 00:36:04,VALID,1000.28,VALID,0,VALID,64.2338,VALID,0,VALID,25.085,VALID,160,VALID,1.24141,
2012-09-10, 00:37:04,VALID,1000.27,VALID,0,VALID,66.0038,VALID,0,VALID,25.1436,VALID,121,VALID,0.752734,
2012-09-10, 00:38:04,VALID,1000.28,VALID,0,VALID,65.7139,VALID,0,VALID,25.1064,VALID,138,VALID,0.785937,
2012-09-10, 00:39:04,VALID,1000.23,VALID,0,VALID,63.8141,VALID,0,VALID,25.0284,VALID,168,VALID,0.628125,
2012-09-10, 00:40:04,VALID,1000.22,VALID,0,VALID,61.7465,VALID,0,VALID,25.0479,VALID,165,VALID,1.50625,
2012-09-10, 00:41:04,VALID,1000.22,VALID,0,VALID,60.9912,VALID,0,VALID,25.2236,VALID,173,VALID,1.63359,
2012-09-10, 00:42:04,VALID,1000.18,VALID,0,VALID,60.5487,VALID,0,VALID,25.4364,VALID,198,VALID,1.175,
2012-09-10, 00:43:05,VALID,1000.16,VALID,0,VALID,58.5879,VALID,0,VALID,25.6707,VALID,171,VALID,2.60781,
2012-09-10, 00:44:05,VALID,1000.16,VALID,0,VALID,58.1682,VALID,0,VALID,25.9069,VALID,173,VALID,3.04023,
2012-09-10, 00:45:05,VALID,1000.17,VALID,0,VALID,57.4205,VALID,0,VALID,26.0611,VALID,172,VALID,3.19258,
2012-09-10, 00:46:05,VALID,1000.21,VALID,0,VALID,58.0919,VALID,0,VALID,26.0611,VALID,165,VALID,2.4207,
2012-09-10, 00:47:05,VALID,1000.14,VALID,0,VALID,57.6418,VALID,0,VALID,26.1217,VALID,173,VALID,2.65156,
2012-09-10, 00:48:05,VALID,1000.16,VALID,0,VALID,56.9475,VALID,0,VALID,26.1392,VALID,167,VALID,2.56992,
2012-09-10, 00:49:05,VALID,1000.15,VALID,0,VALID,57.2145,VALID,0,VALID,26.1002,VALID,158,VALID,1.84336,
2012-09-10, 00:50:05,VALID,1000.17,VALID,0,VALID,57.9088,VALID,0,VALID,26.0026,VALID,164,VALID,1.78828,
2012-09-10, 00:51:05,VALID,1000.14,VALID,0,VALID,58.1759,VALID,0,VALID,25.9049,VALID,153,VALID,1.94141,
2012-09-10, 00:52:05,VALID,1000.14,VALID,0,VALID,60.6631,VALID,0,VALID,25.7897,VALID,134,VALID,1.69102,
2012-09-10, 00:53:05,VALID,1000.11,VALID,0,VALID,63.4479,VALID,0,VALID,25.4754,VALID,95,VALID,1.02148,
2012-09-10, 00:54:05,VALID,1000.12,VALID,0,VALID,65.8589,VALID,0,VALID,25.1455,VALID,57,VALID,1.26406,
2012-09-10, 00:55:05,VALID,1000.16,VALID,0,VALID,67.5755,VALID,0,VALID,24.8508,VALID,63,VALID,1.16484,
2012-09-10, 00:56:05,VALID,1000.08,VALID,0,VALID,68.1249,VALID,0,VALID,24.5404,VALID,104,VALID,0.910156,
2012-09-10, 00:57:05,VALID,1000.08,VALID,0,VALID,69.5058,VALID,0,VALID,24.3647,VALID,86,VALID,0.785937,
2012-09-10, 00:58:05,VALID,1000.09,VALID,0,VALID,70.3146,VALID,0,VALID,24.15,VALID,106,VALID,1.47227,
2012-09-10, 00:59:05,VALID,1000.05,VALID,0,VALID,71.4132,VALID,0,VALID,24.111,VALID,102,VALID,1.3207,
2012-09-10, 01:00:05,VALID,1000.09,VALID,0,VALID,72.0923,VALID,0,VALID,24.0134,VALID,111,VALID,2.13711,
2012-09-10, 01:01:05,VALID,1000.09,VALID,0,VALID,72.3898,VALID,0,VALID,23.9336,VALID,86,VALID,1.87891,
2012-09-10, 01:02:05,VALID,1000.09,VALID,0,VALID,73.0155,VALID,0,VALID,23.875,VALID,116,VALID,1.76992,
2012-09-10, 01:03:05,VALID,1000.1,VALID,0,VALID,71.2759,VALID,0,VALID,23.9159,VALID,115,VALID,2.33398,
2012-09-10, 01:04:05,VALID,1000.1,VALID,0,VALID,69.9941,VALID,0,VALID,24.1287,VALID,115,VALID,2.01289,
2012-09-10, 01:05:05,VALID,1000.14,VALID,0,VALID,70.0781,VALID,0,VALID,24.3043,VALID,145,VALID,1.57695,
2012-09-10, 01:06:05,VALID,1000.12,VALID,0,VALID,70.574,VALID,0,VALID,24.3452,VALID,135,VALID,1.1625,
2012-09-10, 01:07:05,VALID,1000.14,VALID,0,VALID,70.9478,VALID,0,VALID,24.2653,VALID,135,VALID,0.959766,
2012-09-10, 01:08:05,VALID,1000.1,VALID,0,VALID,69.6966,VALID,0,VALID,24.2653,VALID,119,VALID,1.13437,
2012-09-10, 01:09:05,VALID,1000.08,VALID,0,VALID,69.4219,VALID,0,VALID,24.3238,VALID,126,VALID,1.35,
2012-09-10, 01:10:05,VALID,1000.04,VALID,0,VALID,69.5516,VALID,0,VALID,24.3433,VALID,132,VALID,1.08359,
2012-09-10, 01:11:05,VALID,1000.03,VALID,0,VALID,68.6055,VALID,0,VALID,24.3842,VALID,109,VALID,1.91211,
2012-09-10, 01:12:05,VALID,1000.03,VALID,0,VALID,68.4606,VALID,0,VALID,24.4037,VALID,113,VALID,1.90352,
2012-09-10, 01:13:05,VALID,1000.06,VALID,0,VALID,69.3532,VALID,0,VALID,24.3238,VALID,109,VALID,1.69453,
2012-09-10, 01:14:05,VALID,1000.04,VALID,0,VALID,70.1849,VALID,0,VALID,24.2671,VALID,101,VALID,1.28867,
2012-09-10, 01:15:05,VALID,1000.05,VALID,0,VALID,70.0094,VALID,0,VALID,24.15,VALID,116,VALID,1.62031,
2012-09-10, 01:16:05,VALID,1000.06,VALID,0,VALID,70.7876,VALID,0,VALID,24.0525,VALID,111,VALID,1.51758,
2012-09-10, 01:17:05,VALID,1000.04,VALID,0,VALID,70.9784,VALID,0,VALID,23.9726,VALID,100,VALID,1.24297,
2012-09-10, 01:18:05,VALID,1000.06,VALID,0,VALID,70.4748,VALID,0,VALID,23.9531,VALID,95,VALID,1.27773,
2012-09-10, 01:19:05,VALID,1000.04,VALID,0,VALID,71.4132,VALID,0,VALID,23.9939,VALID,95,VALID,0.912891,
2012-09-10, 01:20:05,VALID,1000.04,VALID,0,VALID,71.4743,VALID,0,VALID,23.9354,VALID,95,VALID,1.21406,
2012-09-10, 01:21:05,VALID,1000.05,VALID,0,VALID,71.8329,VALID,0,VALID,23.8555,VALID,95,VALID,1.16797,
2012-09-10, 01:22:05,VALID,1000.06,VALID,0,VALID,72.1228,VALID,0,VALID,23.875,VALID,107,VALID,0.914844,
2012-09-10, 01:23:05,VALID,1000.06,VALID,0,VALID,72.2983,VALID,0,VALID,23.8768,VALID,115,VALID,0.85625,
2012-09-10, 01:24:05,VALID,1000.02,VALID,0,VALID,72.2983,VALID,0,VALID,23.8573,VALID,114,VALID,0.822266,
2012-09-10, 01:25:05,VALID,1000.03,VALID,0,VALID,72.5501,VALID,0,VALID,23.8573,VALID,104,VALID,0.488281,
2012-09-10, 01:26:05,VALID,1000.01,VALID,0,VALID,72.8705,VALID,0,VALID,23.836,VALID,104,VALID,0.425391,
2012-09-10, 01:27:05,VALID,999.978,VALID,0,VALID,72.9773,VALID,0,VALID,23.8183,VALID,100,VALID,0.928906,
2012-09-10, 01:28:05,VALID,999.983,VALID,0,VALID,72.8476,VALID,0,VALID,23.7579,VALID,100,VALID,1.08203,
2012-09-10, 01:29:05,VALID,999.966,VALID,0,VALID,72.634,VALID,0,VALID,23.7793,VALID,115,VALID,0.910156,
2012-09-10, 01:30:05,VALID,999.977,VALID,0,VALID,72.9239,VALID,0,VALID,23.7012,VALID,113,VALID,1.09687,
2012-09-10, 01:31:05,VALID,999.952,VALID,0,VALID,72.8705,VALID,0,VALID,23.6817,VALID,85,VALID,1.93906,
2012-09-10, 01:32:05,VALID,999.949,VALID,0,VALID,73.1299,VALID,0,VALID,23.6232,VALID,95,VALID,1.97305,
2012-09-10, 01:33:05,VALID,999.973,VALID,0,VALID,73.7098,VALID,0,VALID,23.6232,VALID,95,VALID,1.54922,
2012-09-10, 01:34:05,VALID,999.975,VALID,0,VALID,73.7021,VALID,0,VALID,23.5823,VALID,105,VALID,1.7207,
2012-09-10, 01:35:05,VALID,999.988,VALID,0,VALID,73.1604,VALID,0,VALID,23.5823,VALID,95,VALID,1.85156,
2012-09-10, 01:36:05,VALID,999.971,VALID,0,VALID,72.7484,VALID,0,VALID,23.6604,VALID,99,VALID,1.72812,
2012-09-10, 01:37:05,VALID,999.973,VALID,0,VALID,72.9621,VALID,0,VALID,23.7189,VALID,103,VALID,1.48281,
2012-09-10, 01:38:05,VALID,999.952,VALID,0,VALID,72.7027,VALID,0,VALID,23.7189,VALID,104,VALID,1.90742,
2012-09-10, 01:39:05,VALID,999.924,VALID,0,VALID,72.0923,VALID,0,VALID,23.7384,VALID,107,VALID,2.18398,
2012-09-10, 01:40:05,VALID,999.93,VALID,0,VALID,72.1838,VALID,0,VALID,23.8963,VALID,106,VALID,1.53047,
2012-09-10, 01:41:05,VALID,999.902,VALID,0,VALID,72.4432,VALID,0,VALID,23.8982,VALID,110,VALID,1.78633,
2012-09-10, 01:42:05,VALID,999.933,VALID,0,VALID,73.0384,VALID,0,VALID,23.7988,VALID,113,VALID,1.82461,
2012-09-10, 01:43:05,VALID,999.89,VALID,0,VALID,73.2901,VALID,0,VALID,23.7811,VALID,110,VALID,2.28359,
2012-09-10, 01:44:05,VALID,999.876,VALID,0,VALID,73.3054,VALID,0,VALID,23.7811,VALID,119,VALID,1.99961,
2012-09-10, 01:45:05,VALID,999.878,VALID,0,VALID,73.3664,VALID,0,VALID,23.7793,VALID,116,VALID,1.7125,
2012-09-10, 01:46:05,VALID,999.88,VALID,0,VALID,72.5272,VALID,0,VALID,23.8378,VALID,121,VALID,1.93945,
2012-09-10, 01:47:05,VALID,999.83,VALID,0,VALID,72.5195,VALID,0,VALID,23.9567,VALID,123,VALID,1.53359,
2012-09-10, 01:48:05,VALID,999.809,VALID,0,VALID,72.8705,VALID,0,VALID,23.9372,VALID,120,VALID,1.62422,
2012-09-10, 01:49:05,VALID,999.8,VALID,0,VALID,73.1146,VALID,0,VALID,23.8378,VALID,121,VALID,1.37305,
2012-09-10, 01:50:05,VALID,999.742,VALID,0,VALID,72.84,VALID,0,VALID,23.7988,VALID,127,VALID,1.21172,
2012-09-10, 01:51:05,VALID,999.757,VALID,0,VALID,73.1757,VALID,0,VALID,23.7616,VALID,128,VALID,0.821875,
2012-09-10, 01:52:05,VALID,999.741,VALID,0,VALID,73.1833,VALID,0.104696,VALID,23.6994,VALID,134,VALID,1.23203,
2012-09-10, 01:53:05,VALID,999.732,VALID,0,VALID,73.3359,VALID,0,VALID,23.7384,VALID,130,VALID,1.18594,
2012-09-10, 01:54:05,VALID,999.77,VALID,0,VALID,73.3359,VALID,0,VALID,23.7579,VALID,129,VALID,1.14023,
2012-09-10, 01:55:05,VALID,999.794,VALID,0,VALID,73.6716,VALID,0,VALID,23.7189,VALID,125,VALID,1.26953,
2012-09-10, 01:56:05,VALID,999.8,VALID,0,VALID,73.7708,VALID,0,VALID,23.6409,VALID,125,VALID,0.698047,
2012-09-10, 01:57:05,VALID,999.803,VALID,0,VALID,74.4727,VALID,0,VALID,23.5823,VALID,108,VALID,0.611328,
2012-09-10, 01:58:05,VALID,999.782,VALID,0,VALID,74.8237,VALID,0.104696,VALID,23.5238,VALID,110,VALID,0.482812,
2012-09-10, 01:59:05,VALID,999.762,VALID,0,VALID,75.2967,VALID,0,VALID,23.4653,VALID,125,VALID,0.551172,
2012-09-10, 02:00:05,VALID,999.709,VALID,0,VALID,75.2204,VALID,0,VALID,23.3872,VALID,108,VALID,1.36055,
2012-09-10, 02:01:05,VALID,999.693,VALID,0,VALID,75.4112,VALID,0,VALID,23.4067,VALID,120,VALID,0.775391,
2012-09-10, 02:02:05,VALID,999.684,VALID,0,VALID,74.9381,VALID,0,VALID,23.4067,VALID,128,VALID,1.00508,
2012-09-10, 02:03:05,VALID,999.711,VALID,0,VALID,74.6406,VALID,0,VALID,23.5238,VALID,131,VALID,1.55195,
2012-09-10, 02:04:05,VALID,999.696,VALID,0,VALID,74.6329,VALID,0,VALID,23.5646,VALID,114,VALID,0.896094,
2012-09-10, 02:05:05,VALID,999.687,VALID,0,VALID,74.6787,VALID,0,VALID,23.5451,VALID,116,VALID,0.663672,
2012-09-10, 02:06:05,VALID,999.689,VALID,0,VALID,75.0297,VALID,0,VALID,23.5238,VALID,142,VALID,0.623438,
2012-09-10, 02:07:05,VALID,999.697,VALID,0,VALID,75.4188,VALID,0,VALID,23.4866,VALID,142,VALID,0.387891,
2012-09-10, 02:08:05,VALID,999.7,VALID,0,VALID,75.6248,VALID,0,VALID,23.4475,VALID,142,VALID,0.311328,
2012-09-10, 02:09:05,VALID,999.68,VALID,0,VALID,76.1589,VALID,0,VALID,23.428,VALID,154,VALID,0.466406,
2012-09-10, 02:10:05,VALID,999.696,VALID,0,VALID,76.1589,VALID,0,VALID,23.3695,VALID,154,VALID,0.460938,
2012-09-10, 02:11:05,VALID,999.684,VALID,0,VALID,76.0521,VALID,0,VALID,23.3518,VALID,154,VALID,0.403125,
2012-09-10, 02:12:05,VALID,999.644,VALID,0,VALID,76.4106,VALID,0,VALID,23.2915,VALID,105,VALID,0.594922,
2012-09-10, 02:13:05,VALID,999.655,VALID,0,VALID,76.4335,VALID,0,VALID,23.2524,VALID,103,VALID,0.698047,
2012-09-10, 02:14:05,VALID,999.643,VALID,0,VALID,76.5938,VALID,0,VALID,23.2134,VALID,115,VALID,1.15859,
2012-09-10, 02:15:05,VALID,999.645,VALID,0,VALID,76.8761,VALID,0,VALID,23.2329,VALID,106,VALID,1.09531,
2012-09-10, 02:16:05,VALID,999.616,VALID,0,VALID,77.372,VALID,0,VALID,23.2347,VALID,101,VALID,1.08906,
2012-09-10, 02:17:05,VALID,999.636,VALID,0,VALID,77.8145,VALID,0,VALID,23.1957,VALID,105,VALID,1.28437,
2012-09-10, 02:18:05,VALID,999.64,VALID,0,VALID,77.9671,VALID,0,VALID,23.1549,VALID,106,VALID,1.53945,
2012-09-10, 02:19:05,VALID,999.6,VALID,0,VALID,77.9137,VALID,0,VALID,23.1744,VALID,95,VALID,1.26953,
2012-09-10, 02:20:05,VALID,999.645,VALID,0,VALID,77.9061,VALID,0,VALID,23.2329,VALID,119,VALID,1.13594,
2012-09-10, 02:21:05,VALID,999.648,VALID,0,VALID,78.0663,VALID,0,VALID,23.2347,VALID,124,VALID,0.857422,
2012-09-10, 02:22:05,VALID,999.667,VALID,0,VALID,78.1349,VALID,0,VALID,23.1939,VALID,124,VALID,0.841406,
2012-09-10, 02:23:05,VALID,999.674,VALID,0,VALID,78.3715,VALID,0,VALID,23.1957,VALID,121,VALID,0.6625,
2012-09-10, 02:24:05,VALID,999.658,VALID,0,VALID,78.524,VALID,0,VALID,23.1549,VALID,106,VALID,0.674219,
2012-09-10, 02:25:05,VALID,999.724,VALID,0,VALID,78.4935,VALID,0,VALID,23.1762,VALID,90,VALID,0.748047,
2012-09-10, 02:26:05,VALID,999.717,VALID,0,VALID,78.814,VALID,0,VALID,23.0964,VALID,104,VALID,0.99375,
2012-09-10, 02:27:05,VALID,999.696,VALID,0,VALID,79.1192,VALID,0,VALID,23.0769,VALID,104,VALID,0.964844,
2012-09-10, 02:28:05,VALID,999.707,VALID,0,VALID,79.0886,VALID,0,VALID,23.0981,VALID,104,VALID,0.672656,
2012-09-10, 02:29:05,VALID,999.698,VALID,0,VALID,79.1802,VALID,0,VALID,23.0769,VALID,104,VALID,0.279297,
2012-09-10, 02:30:05,VALID,999.703,VALID,0,VALID,79.1649,VALID,0,VALID,23.0573,VALID,104,VALID,0.146484,
2012-09-10, 02:31:05,VALID,999.689,VALID,0,VALID,79.2107,VALID,0,VALID,23.0396,VALID,91,VALID,0.408984,
2012-09-10, 02:32:05,VALID,999.701,VALID,0,VALID,79.2718,VALID,0,VALID,22.9988,VALID,91,VALID,0.186328,
2012-09-10, 02:33:05,VALID,999.679,VALID,0,VALID,79.76,VALID,0,VALID,22.9811,VALID,78,VALID,0.450781,
2012-09-10, 02:34:05,VALID,999.695,VALID,0,VALID,80.8511,VALID,0,VALID,22.8623,VALID,74,VALID,0.630078,
2012-09-10, 02:35:05,VALID,999.648,VALID,0,VALID,80.8053,VALID,0,VALID,22.7647,VALID,52,VALID,0.866016,
2012-09-10, 02:36:05,VALID,999.686,VALID,0,VALID,81.3928,VALID,0,VALID,22.6884,VALID,51,VALID,0.618359,
2012-09-10, 02:37:05,VALID,999.703,VALID,0,VALID,81.7056,VALID,0,VALID,22.6087,VALID,51,VALID,0.567969,
2012-09-10, 02:38:05,VALID,999.711,VALID,0,VALID,81.7361,VALID,0,VALID,22.5306,VALID,51,VALID,0.711719,
2012-09-10, 02:39:05,VALID,999.706,VALID,0,VALID,81.6674,VALID,0,VALID,22.5501,VALID,320,VALID,1.04883,
2012-09-10, 02:40:05,VALID,999.725,VALID,0,VALID,81.6827,VALID,0,VALID,22.5679,VALID,320,VALID,0.934766,
2012-09-10, 02:41:05,VALID,999.711,VALID,0,VALID,81.5912,VALID,0,VALID,22.5874,VALID,320,VALID,0.828906,
2012-09-10, 02:42:05,VALID,999.689,VALID,0,VALID,81.2707,VALID,0,VALID,22.6477,VALID,320,VALID,0.539063,
2012-09-10, 02:43:05,VALID,999.716,VALID,0,VALID,80.8816,VALID,0,VALID,22.646,VALID,339,VALID,0.66875,
2012-09-10, 02:44:05,VALID,999.678,VALID,0,VALID,81.0723,VALID,0,VALID,22.5892,VALID,339,VALID,0.483594,
2012-09-10, 02:45:05,VALID,999.718,VALID,0,VALID,81.6674,VALID,0,VALID,22.4721,VALID,339,VALID,0.206641,
2012-09-10, 02:46:05,VALID,999.714,VALID,0,VALID,81.9192,VALID,0,VALID,22.4119,VALID,339,VALID,0.167969,
2012-09-10, 02:47:05,VALID,999.688,VALID,0,VALID,82.0337,VALID,0,VALID,22.4331,VALID,339,VALID,0.385547,
2012-09-10, 02:48:05,VALID,999.731,VALID,0,VALID,82.2626,VALID,0.104696,VALID,22.3339,VALID,8,VALID,0.425781,
2012-09-10, 02:49:05,VALID,999.743,VALID,0,VALID,82.5677,VALID,0,VALID,22.3356,VALID,8,VALID,0.292969,
2012-09-10, 02:50:05,VALID,999.786,VALID,0,VALID,82.789,VALID,0,VALID,22.2966,VALID,8,VALID,0.321875,
2012-09-10, 02:51:05,VALID,999.8,VALID,0,VALID,82.9569,VALID,0,VALID,22.2771,VALID,8,VALID,0.14375,
2012-09-10, 02:52:05,VALID,999.787,VALID,0,VALID,83.262,VALID,0,VALID,22.2364,VALID,8,VALID,0.469922,
2012-09-10, 02:53:05,VALID,999.793,VALID,0,VALID,83.3765,VALID,0,VALID,22.199,VALID,8,VALID,0.473047,
2012-09-10, 02:54:05,VALID,999.769,VALID,0,VALID,83.4604,VALID,0,VALID,22.1795,VALID,8,VALID,0.273047,
2012-09-10, 02:55:05,VALID,999.764,VALID,0,VALID,83.6054,VALID,0,VALID,22.1389,VALID,8,VALID,0.493359,
2012-09-10, 02:56:05,VALID,999.791,VALID,0,VALID,83.4452,VALID,0,VALID,22.1194,VALID,51,VALID,0.834375,
2012-09-10, 02:57:05,VALID,999.799,VALID,0,VALID,83.2086,VALID,0,VALID,22.121,VALID,52,VALID,0.746875,
2012-09-10, 02:58:05,VALID,999.78,VALID,0,VALID,83.3765,VALID,0,VALID,22.0998,VALID,52,VALID,0.364453,
2012-09-10, 02:59:05,VALID,999.723,VALID,0,VALID,83.2468,VALID,0,VALID,22.1405,VALID,52,VALID,0.703125,
2012-09-10, 03:00:05,VALID,999.715,VALID,0,VALID,82.7356,VALID,0.104696,VALID,22.199,VALID,41,VALID,0.872656,
2012-09-10, 03:01:05,VALID,999.725,VALID,0,VALID,82.0032,VALID,0,VALID,22.2364,VALID,60,VALID,0.728516,
2012-09-10, 03:02:05,VALID,999.714,VALID,0,VALID,81.4004,VALID,0,VALID,22.3746,VALID,66,VALID,1.07148,
2012-09-10, 03:03:05,VALID,999.713,VALID,0,VALID,80.3704,VALID,0,VALID,22.5696,VALID,66,VALID,0.985937,
2012-09-10, 03:04:05,VALID,999.775,VALID,0,VALID,79.3023,VALID,0,VALID,22.7452,VALID,79,VALID,1.02266,
2012-09-10, 03:05:05,VALID,999.791,VALID,0,VALID,78.9589,VALID,0,VALID,22.8215,VALID,79,VALID,0.920313,
2012-09-10, 03:06:05,VALID,999.817,VALID,0,VALID,79.02,VALID,0,VALID,22.841,VALID,77,VALID,0.977734,
2012-09-10, 03:07:05,VALID,999.844,VALID,0,VALID,79.348,VALID,0,VALID,22.786,VALID,70,VALID,1.01445,
2012-09-10, 03:08:05,VALID,999.859,VALID,0,VALID,79.8516,VALID,0,VALID,22.6884,VALID,53,VALID,0.844922,
2012-09-10, 03:09:05,VALID,999.857,VALID,0,VALID,80.1339,VALID,0,VALID,22.5714,VALID,40,VALID,1.25234,
2012-09-10, 03:10:05,VALID,999.863,VALID,0,VALID,80.6375,VALID,0,VALID,22.3763,VALID,30,VALID,1.32227,
2012-09-10, 03:11:05,VALID,999.879,VALID,0,VALID,81.408,VALID,0,VALID,22.121,VALID,28,VALID,0.847656,
2012-09-10, 03:12:05,VALID,999.897,VALID,0,VALID,82.4838,VALID,0,VALID,21.9472,VALID,28,VALID,0.993359,
2012-09-10, 03:13:05,VALID,999.908,VALID,0,VALID,83.2315,VALID,0,VALID,21.8106,VALID,28,VALID,0.739453,
2012-09-10, 03:14:05,VALID,999.888,VALID,0,VALID,83.88,VALID,0,VALID,21.6725,VALID,28,VALID,1.11016,
2012-09-10, 03:15:05,VALID,999.904,VALID,0,VALID,86.3673,VALID,0,VALID,21.5766,VALID,33,VALID,1.08086,
2012-09-10, 03:16:05,VALID,999.904,VALID,0,VALID,87.2371,VALID,0,VALID,21.5181,VALID,33,VALID,0.642969,
2012-09-10, 03:17:05,VALID,999.903,VALID,0,VALID,88.0077,VALID,0,VALID,21.4401,VALID,33,VALID,0.614844,
2012-09-10, 03:18:05,VALID,999.916,VALID,0,VALID,88.8317,VALID,0,VALID,21.3995,VALID,15,VALID,0.953125,
2012-09-10, 03:19:05,VALID,999.873,VALID,0,VALID,89.732,VALID,0,VALID,21.4385,VALID,4,VALID,0.951563,
2012-09-10, 03:20:05,VALID,999.881,VALID,0,VALID,90.0219,VALID,0,VALID,21.4986,VALID,4,VALID,1.06836,
2012-09-10, 03:21:05,VALID,999.913,VALID,0,VALID,89.9532,VALID,0,VALID,21.497,VALID,358,VALID,0.915234,
2012-09-10, 03:22:05,VALID,999.895,VALID,0,VALID,89.8998,VALID,0,VALID,21.5165,VALID,358,VALID,0.808984,
2012-09-10, 03:23:05,VALID,999.93,VALID,0,VALID,89.8235,VALID,0,VALID,21.536,VALID,349,VALID,0.963281,
2012-09-10, 03:24:05,VALID,999.919,VALID,0,VALID,89.6023,VALID,0,VALID,21.5766,VALID,348,VALID,0.454688,
2012-09-10, 03:25:05,VALID,999.904,VALID,0,VALID,89.6404,VALID,0,VALID,21.575,VALID,356,VALID,1.06484,
2012-09-10, 03:26:04,VALID,999.923,VALID,0,VALID,89.3886,VALID,0,VALID,21.6156,VALID,2,VALID,0.6875,
2012-09-10, 03:27:04,VALID,999.913,VALID,0,VALID,89.1368,VALID,0,VALID,21.6156,VALID,11,VALID,0.729688,
2012-09-10, 03:28:04,VALID,999.941,VALID,0,VALID,89.2132,VALID,0,VALID,21.6156,VALID,30,VALID,0.638672,
2012-09-10, 03:29:04,VALID,999.933,VALID,0,VALID,88.9995,VALID,0,VALID,21.5945,VALID,51,VALID,0.835156,
2012-09-10, 03:30:04,VALID,999.932,VALID,0,VALID,88.496,VALID,0,VALID,21.6936,VALID,53,VALID,0.600391,
2012-09-10, 03:31:04,VALID,999.946,VALID,0,VALID,88,VALID,0,VALID,21.8692,VALID,75,VALID,0.266406,
2012-09-10, 03:32:04,VALID,999.967,VALID,0,VALID,87.9466,VALID,0,VALID,21.8675,VALID,75,VALID,0.322266,
2012-09-10, 03:33:04,VALID,1000.04,VALID,0,VALID,88.0992,VALID,0,VALID,21.848,VALID,74,VALID,0.567969,
2012-09-10, 03:34:04,VALID,1000.07,VALID,0,VALID,88.351,VALID,0,VALID,21.809,VALID,17,VALID,0.660156,
2012-09-10, 03:35:04,VALID,1000.12,VALID,0,VALID,88.206,VALID,0,VALID,21.8106,VALID,40,VALID,0.734766,
2012-09-10, 03:36:04,VALID,1000.12,VALID,0,VALID,88.4578,VALID,0,VALID,21.7911,VALID,37,VALID,0.646094,
2012-09-10, 03:37:04,VALID,1000.15,VALID,0,VALID,88.1832,VALID,0,VALID,21.7716,VALID,31,VALID,0.561719,
2012-09-10, 03:38:04,VALID,1000.14,VALID,0,VALID,88.145,VALID,0,VALID,21.7521,VALID,34,VALID,0.694531,
2012-09-10, 03:39:04,VALID,1000.18,VALID,0,VALID,87.8017,VALID,0,VALID,21.692,VALID,26,VALID,1.05117,
2012-09-10, 03:40:04,VALID,1000.13,VALID,0,VALID,87.6643,VALID,0,VALID,21.6741,VALID,18,VALID,1.29336,
2012-09-10, 03:41:04,VALID,1000.11,VALID,0,VALID,87.8551,VALID,0,VALID,21.6546,VALID,18,VALID,0.987891,
2012-09-10, 03:42:04,VALID,1000.11,VALID,0,VALID,88.4578,VALID,0,VALID,21.6156,VALID,18,VALID,0.796875,
2012-09-10, 03:43:04,VALID,1000.09,VALID,0,VALID,89.1826,VALID,0,VALID,21.5961,VALID,18,VALID,0.579297,
2012-09-10, 03:44:04,VALID,1000.11,VALID,0,VALID,89.6786,VALID,0,VALID,21.5766,VALID,18,VALID,0.128906,
2012-09-10, 03:45:04,VALID,1000.14,VALID,0,VALID,89.7396,VALID,0,VALID,21.5766,VALID,18,VALID,0.170312,
2012-09-10, 03:46:04,VALID,1000.1,VALID,0,VALID,89.6175,VALID,0,VALID,21.536,VALID,18,VALID,0.0808594,